Terminal Aerodrome Forecast
Issued by NWS Austin/San Antonio, TX

Home | Current Version | Previous Version | Text Only | Print | Product List | Glossary On
Versions: 1 2 3 4 5 6 7 8 9 10 11 12 13 14 15 16 17 18 19
000
FTUS44 KEWX 250520
TAFDRT
TAF
KDRT 250520Z 2506/2606 11010KT P6SM FEW150
     FM251100 10005KT P6SM BKN015
     FM251900 12010KT P6SM VCSH BKN040
     FM260200 10010KT P6SM SCT150 BKN250=

USA.gov is the U.S. government's official web portal to all federal, state and local government web resources and services.